Weather History for Lander, WY

Change the Weather History Date:

Saturday, February 16, 2013

  Actual Average Record
Temperature  
Mean Temperature 30 °F 25 °F  
Max Temperature 43 °F 37 °F 60 °F (1996)
Min Temperature 16 °F 14 °F -30 °F (1900)
Degree Days  
Heating Degree Days 35 40  
Month to date heating degree days 649 665  
Since 1 July heating degree days 4862 5255  
Cooling Degree Days 0 0  
Month to date cooling degree days 0 0  
Year to date cooling degree days 0 0  
Moisture  
Dew Point 15 °F    
Average Humidity 56    
Maximum Humidity 68    
Minimum Humidity 43    
Precipitation  
Precipitation 0.00 in 0.02 in 0.14 in (1942)
Month to date precipitation 0.80 0.29  
Year to date precipitation 1.50 0.70  
Snow  
Snow 0.00 in 0.40 in - ()
Month to date snowfall 15.9 5.6  
Since 1 July snowfall 44.3 48.9  
Snow Depth 4.00 in    
Sea Level Pressure  
Sea Level Pressure 30.16 in    
Wind  
Wind Speed 3 mph (SSE)    
Max Wind Speed 13 mph    
Max Gust Speed 14 mph    
Visibility 10 miles    
Events      
T = Trace of Precipitation, MM = Missing Value Source: NWS Daily Summary

Daily Weather History Graph

Daily Weather History Graph

Search for Another Location

Airport:

Trip Planner

Search our weather history database for the weather conditions in past years. The results will help you decide how hot, cold, wet, or windy it might be!

Date:

Astronomy

Feb. 16, 2013 Rise Set
Actual Time 7:10 AM MST 5:48 PM MST
Civil Twilight 6:41 AM MST 6:17 PM MST
Nautical Twilight 6:08 AM MST 6:50 PM MST
Astronomical Twilight 5:35 AM MST 7:23 PM MST
Moon 10:14 AM MST (2/16) 12:01 AM MST (2/16)
Length of Visible Light 11h 35m
Length of Day
10h 38m
Waxing Crescent, 40% of the Moon is Illuminated
Feb 16
Waxing Crescent
Feb 17
First Quarter
Feb 25
Full
Mar 4
Last Quarter
Mar 11
New

Hourly Weather History & Observations

Time (MST) Temp. Windchill Dew Point Humidity Pressure Visibility Wind Dir Wind Speed Gust Speed Precip Events Conditions
12:53 AM 19.9 °F - 10.9 °F 68% 30.30 in 10.0 mi Calm Calm - N/A   Clear
1:53 AM 21.0 °F - 10.9 °F 65% 30.28 in 10.0 mi Calm Calm - N/A   Clear
2:53 AM 23.0 °F 14.7 °F 10.9 °F 60% 30.27 in 10.0 mi WSW 6.9 mph - N/A   Clear
3:53 AM 19.9 °F - 10.9 °F 68% 30.27 in 10.0 mi Calm Calm - N/A   Clear
4:53 AM 21.0 °F 12.4 °F 10.9 °F 65% 30.26 in 10.0 mi North 6.9 mph - N/A   Clear
5:53 AM 23.0 °F 17.0 °F 10.9 °F 60% 30.27 in 10.0 mi SSW 4.6 mph - N/A   Clear
6:53 AM 19.9 °F - 10.0 °F 65% 30.29 in 10.0 mi Calm Calm - N/A   Clear
7:53 AM 19.9 °F - 10.0 °F 65% 30.30 in 10.0 mi Calm Calm - N/A   Clear
8:53 AM 21.0 °F - 10.9 °F 65% 30.29 in 10.0 mi Calm Calm - N/A   Clear
9:53 AM 26.1 °F - 12.9 °F 58% 30.26 in 10.0 mi Calm Calm - N/A   Clear
10:53 AM 30.9 °F 26.2 °F 15.1 °F 52% 30.24 in 10.0 mi East 4.6 mph - N/A   Clear
11:53 AM 37.9 °F 33.5 °F 19.0 °F 47% 30.19 in 10.0 mi NE 5.8 mph - N/A   Clear
12:53 PM 37.9 °F 35.5 °F 19.9 °F 48% 30.17 in 10.0 mi SSE 3.5 mph - N/A   Clear
1:53 PM 39.9 °F 37.8 °F 19.9 °F 45% 30.11 in 10.0 mi ESE 3.5 mph - N/A   Clear
2:53 PM 41.0 °F 38.0 °F 21.9 °F 47% 30.08 in 10.0 mi SE 4.6 mph - N/A   Clear
3:53 PM 41.0 °F - 21.0 °F 45% 30.06 in 10.0 mi Calm Calm - N/A   Clear
4:53 PM 42.1 °F - 21.9 °F 45% 30.04 in 10.0 mi Calm Calm - N/A   Clear
5:53 PM 35.1 °F 31.0 °F 21.0 °F 57% 30.06 in 10.0 mi West 4.6 mph - N/A   Clear
6:53 PM 30.9 °F 26.2 °F 19.0 °F 61% 30.07 in 10.0 mi South 4.6 mph - N/A   Clear
7:53 PM 32.0 °F 28.7 °F 19.9 °F 61% 30.05 in 10.0 mi WNW 3.5 mph - N/A   Clear
8:53 PM 28.0 °F - 18.0 °F 66% 30.06 in 10.0 mi Calm Calm - N/A   Clear
9:53 PM 28.0 °F 21.7 °F 15.1 °F 58% 30.01 in 10.0 mi ESE 5.8 mph - N/A   Clear
10:53 PM 23.0 °F 17.0 °F 14.0 °F 68% 29.96 in 10.0 mi East 4.6 mph - N/A   Clear
11:53 PM 27.0 °F 23.0 °F 12.9 °F 56% 29.89 in 10.0 mi WSW 3.5 mph - N/A   Clear